Location: Hysolar-Haus
(48.7436°N, 9.0965°E)
Time: 09:06:29
(UTC+00:00)

ISS - Pass Details

Date: 30 January 2023
Orbit: 413 x 423 km, 51.6° (Epoch: 02 April)

Event Time Altitude Azimuth Distance (km) Brightness Sun altitude
Rises 19:05:10 0° 288° (WNW) 2,430 1.3 -27.6°
Reaches altitude 10° 19:07:30 10° 276° (W) 1,556 0.1 -28.0°
Enters shadow 19:09:12 21° 252° (WSW) 1,054 -1.1 -28.2°
